Weather History for KMWM - March, 2013

Change the Weather History Date:

Monday, March 25, 2013

  Actual Average Record
Temperature  
Mean Temperature 27 °F -  
Max Temperature 33 °F 46 °F 77 °F (1967)
Min Temperature 21 °F 26 °F -4 °F (1952)
Degree Days  
Heating Degree Days 38    
Moisture  
Dew Point 21 °F    
Average Humidity 83    
Maximum Humidity 100    
Minimum Humidity 69    
Precipitation  
Precipitation 0.00 in - - ()
Sea Level Pressure  
Sea Level Pressure 30.15 in    
Wind  
Wind Speed 18 mph (NW)    
Max Wind Speed 23 mph    
Max Gust Speed 28 mph    
Visibility 10 miles    
Events Snow    
Averages and records for this station are not official NWS values.
T = Trace of Precipitation, MM = Missing Value Source: NWS Daily Summary

Daily Weather History Graph

Daily Weather History Graph

Search for Another Location

Airport or City:

Trip Planner

Search our weather history database for the weather conditions in past years. The results will help you decide how hot, cold, wet, or windy it might be!

Date:

Astronomy

Mar. 25, 2013 Rise Set
Actual Time 7:14 AM CDT 7:39 PM CDT
Civil Twilight 6:45 AM CDT 8:08 PM CDT
Nautical Twilight 6:11 AM CDT 8:42 PM CDT
Astronomical Twilight 5:36 AM CDT 9:17 PM CDT
Moon 6:10 PM CDT (3/25) 6:00 AM CDT (3/25)
Length of Visible Light 13h 22m
Length of Day
12h 25m
Waxing Gibbous, 96% of the Moon is Illuminated
Mar 25
Waxing Gibbous
Mar 27
Full
Apr 2
Last Quarter
Apr 10
New
Apr 18
First Quarter

Hourly Weather History & Observations

Time (CDT) Temp. Windchill Dew Point Humidity Pressure Visibility Wind Dir Wind Speed Gust Speed Precip Events Conditions
12:12 AM 24.8 °F 11.5 °F 21.2 °F 86% 30.05 in 10.0 mi NNW 17.3 mph 24.2 mph N/A Snow Light Snow
12:32 AM 24.8 °F 11.1 °F 21.2 °F 86% 30.05 in 5.0 mi NW 18.4 mph 25.3 mph N/A Snow Light Snow
12:53 AM 24.8 °F 11.5 °F 21.2 °F 86% 30.05 in 4.0 mi NW 17.3 mph 23.0 mph N/A Snow Light Snow
1:12 AM 24.8 °F 11.1 °F 21.2 °F 86% 30.05 in 4.0 mi NNW 18.4 mph - N/A Snow Light Snow
1:32 AM 24.8 °F 11.1 °F 21.2 °F 86% 30.05 in 10.0 mi NW 18.4 mph - N/A   Overcast
1:53 AM 24.8 °F 11.1 °F 21.2 °F 86% 30.05 in 10.0 mi NNW 18.4 mph 24.2 mph N/A Snow Light Snow
2:12 AM 24.8 °F 11.5 °F 21.2 °F 86% 30.05 in 10.0 mi NW 17.3 mph 24.2 mph N/A Snow Light Snow
2:32 AM 24.8 °F 11.1 °F 21.2 °F 86% 30.04 in 10.0 mi NNW 18.4 mph 21.9 mph N/A Snow Light Snow
2:53 AM 24.8 °F 11.1 °F 21.2 °F 86% 30.05 in 7.0 mi NW 18.4 mph 23.0 mph N/A Snow Light Snow
3:12 AM 23.0 °F 8.3 °F 21.2 °F 93% 30.05 in 7.0 mi NNW 19.6 mph - N/A Snow Light Snow
3:32 AM 23.0 °F 8.7 °F 21.2 °F 93% 30.05 in 10.0 mi NNW 18.4 mph 23.0 mph N/A   Overcast
3:53 AM 23.0 °F 10.6 °F 21.2 °F 93% 30.05 in 10.0 mi NNW 13.8 mph - N/A   Mostly Cloudy
4:12 AM 23.0 °F 10.6 °F 21.2 °F 93% 30.05 in 10.0 mi NNW 13.8 mph 18.4 mph N/A   Overcast
4:53 AM 24.8 °F 12.4 °F 21.2 °F 86% 30.05 in 10.0 mi NW 15.0 mph - N/A Snow Light Snow
5:12 AM 23.0 °F 9.6 °F 21.2 °F 93% 30.06 in 10.0 mi NW 16.1 mph 20.7 mph N/A   Overcast
5:32 AM 23.0 °F 9.6 °F 21.2 °F 93% 30.07 in 10.0 mi NNW 16.1 mph - N/A   Overcast
5:52 AM 23.0 °F 10.1 °F 21.2 °F 93% 30.07 in 10.0 mi NNW 15.0 mph 19.6 mph N/A Snow Light Snow
6:12 AM 23.0 °F 9.2 °F 21.2 °F 93% 30.08 in 10.0 mi NNW 17.3 mph - N/A   Mostly Cloudy
6:33 AM 21.2 °F 7.8 °F 21.2 °F 100% 30.08 in 10.0 mi NW 15.0 mph - N/A   Clear
6:52 AM 21.2 °F 7.3 °F 21.2 °F 100% 30.09 in 10.0 mi NW 16.1 mph - N/A   Clear
7:13 AM 21.2 °F 7.3 °F 21.2 °F 100% 30.10 in 10.0 mi NW 16.1 mph - N/A   Clear
7:32 AM 21.2 °F 7.3 °F 21.2 °F 100% 30.11 in 10.0 mi NW 16.1 mph 20.7 mph N/A   Clear
7:52 AM 21.2 °F 6.8 °F 21.2 °F 100% 30.11 in 10.0 mi NW 17.3 mph 23.0 mph N/A   Clear
8:12 AM 23.0 °F 9.2 °F 21.2 °F 93% 30.12 in 10.0 mi NW 17.3 mph - N/A   Clear
8:32 AM 23.0 °F 9.2 °F 21.2 °F 93% 30.13 in 10.0 mi NW 17.3 mph - N/A   Clear
8:53 AM 23.0 °F 9.6 °F 21.2 °F 93% 30.13 in 10.0 mi NW 16.1 mph 24.2 mph N/A   Clear
9:12 AM 24.8 °F 10.7 °F 21.2 °F 86% 30.14 in 10.0 mi NW 19.6 mph 24.2 mph N/A   Clear
9:32 AM 24.8 °F 10.7 °F 21.2 °F 86% 30.14 in 10.0 mi NW 19.6 mph 24.2 mph N/A   Mostly Cloudy
9:53 AM 24.8 °F 10.0 °F 21.2 °F 86% 30.15 in 10.0 mi NNW 21.9 mph - N/A   Overcast
10:12 AM 26.6 °F 12.7 °F 21.2 °F 80% 30.15 in 10.0 mi NNW 20.7 mph 24.2 mph N/A   Overcast
10:32 AM 26.6 °F 12.7 °F 21.2 °F 80% 30.16 in 10.0 mi NNW 20.7 mph 25.3 mph N/A   Overcast
10:53 AM 26.6 °F 12.4 °F 21.2 °F 80% 30.17 in 10.0 mi NNW 21.9 mph - N/A   Mostly Cloudy
11:12 AM 26.6 °F 12.4 °F 21.2 °F 80% 30.17 in 10.0 mi NNW 21.9 mph 26.5 mph N/A   Mostly Cloudy
11:32 AM 28.4 °F 15.1 °F 21.2 °F 74% 30.17 in 10.0 mi NNW 20.7 mph - N/A   Overcast
11:53 AM 28.4 °F 15.1 °F 21.2 °F 74% 30.17 in 10.0 mi NNW 20.7 mph - N/A   Mostly Cloudy
12:12 PM 28.4 °F 15.1 °F 23.0 °F 80% 30.17 in 10.0 mi NNW 20.7 mph 25.3 mph N/A   Scattered Clouds
12:32 PM 28.4 °F 15.8 °F 24.8 °F 86% 30.17 in 10.0 mi NNW 18.4 mph 24.2 mph N/A   Scattered Clouds
12:53 PM 30.2 °F 17.8 °F 24.8 °F 80% 30.17 in 10.0 mi NNW 19.6 mph 26.5 mph N/A   Scattered Clouds
1:12 PM 30.2 °F 17.4 °F 24.8 °F 80% 30.17 in 10.0 mi NNW 20.7 mph 27.6 mph N/A   Scattered Clouds
1:32 PM 30.2 °F 17.8 °F 24.8 °F 80% 30.17 in 10.0 mi NNW 19.6 mph - N/A   Scattered Clouds
1:53 PM 32.0 °F 19.5 °F 24.8 °F 75% 30.17 in 10.0 mi NNW 21.9 mph 26.5 mph N/A   Scattered Clouds
2:12 PM 32.0 °F 19.8 °F 24.8 °F 75% 30.17 in 10.0 mi NW 20.7 mph 24.2 mph N/A   Scattered Clouds
2:32 PM 32.0 °F 20.8 °F 24.8 °F 75% 30.17 in 10.0 mi NNW 17.3 mph - N/A   Mostly Cloudy
2:53 PM 32.0 °F 20.1 °F 24.8 °F 75% 30.17 in 10.0 mi NNW 19.6 mph 26.5 mph N/A   Mostly Cloudy
3:12 PM 32.0 °F 22.1 °F 24.8 °F 75% 30.17 in 10.0 mi NNW 13.8 mph 25.3 mph N/A   Mostly Cloudy
3:32 PM 33.8 °F 22.8 °F 24.8 °F 70% 30.17 in 10.0 mi NW 18.4 mph 26.5 mph N/A   Mostly Cloudy
3:53 PM 33.8 °F 23.2 °F 24.8 °F 70% 30.17 in 10.0 mi NNW 17.3 mph 25.3 mph N/A   Scattered Clouds
4:12 PM 32.0 °F 21.2 °F 23.0 °F 69% 30.18 in 10.0 mi NW 16.1 mph - N/A   Scattered Clouds
4:32 PM 33.8 °F 22.5 °F 24.8 °F 70% 30.18 in 10.0 mi NW 19.6 mph - N/A   Scattered Clouds
4:53 PM 32.0 °F 20.5 °F 24.8 °F 75% 30.19 in 10.0 mi NW 18.4 mph 24.2 mph N/A   Mostly Cloudy
5:12 PM 32.0 °F 20.1 °F 23.0 °F 69% 30.19 in 10.0 mi NW 19.6 mph - N/A   Mostly Cloudy
5:32 PM 32.0 °F 21.2 °F 24.8 °F 75% 30.19 in 10.0 mi NNW 16.1 mph 25.3 mph N/A   Mostly Cloudy
5:53 PM 30.2 °F 17.4 °F 21.2 °F 69% 30.20 in 10.0 mi NW 20.7 mph - N/A   Mostly Cloudy
6:12 PM 30.2 °F 16.8 °F 21.2 °F 69% 30.20 in 10.0 mi NW 23.0 mph 26.5 mph N/A   Scattered Clouds
6:32 PM 28.4 °F 15.4 °F 21.2 °F 74% 30.21 in 10.0 mi NW 19.6 mph - N/A   Scattered Clouds
6:53 PM 28.4 °F 14.7 °F 21.2 °F 74% 30.21 in 10.0 mi NW 21.9 mph 25.3 mph N/A   Clear
7:12 PM 28.4 °F 16.2 °F 21.2 °F 74% 30.22 in 10.0 mi NW 17.3 mph 21.9 mph N/A   Clear
7:32 PM 26.6 °F 13.1 °F 21.2 °F 80% 30.23 in 10.0 mi NW 19.6 mph 26.5 mph N/A   Clear
7:53 PM 26.6 °F 12.7 °F 21.2 °F 80% 30.24 in 10.0 mi NW 20.7 mph 25.3 mph N/A   Clear
8:12 PM 24.8 °F 10.7 °F 19.4 °F 80% 30.24 in 10.0 mi NW 19.6 mph - N/A   Clear
8:32 PM 24.8 °F 10.7 °F 19.4 °F 80% 30.24 in 10.0 mi NW 19.6 mph - N/A   Clear
8:53 PM 24.8 °F 10.3 °F 19.4 °F 80% 30.24 in 10.0 mi NW 20.7 mph 25.3 mph N/A   Clear
9:12 PM 24.8 °F 11.1 °F 19.4 °F 80% 30.25 in 10.0 mi NW 18.4 mph - N/A   Clear
9:32 PM 23.0 °F 8.3 °F 17.6 °F 80% 30.26 in 10.0 mi NW 19.6 mph 24.2 mph N/A   Clear
9:53 PM 23.0 °F 8.7 °F 17.6 °F 80% 30.26 in 10.0 mi NW 18.4 mph 26.5 mph N/A   Clear
10:12 PM 23.0 °F 9.6 °F 17.6 °F 80% 30.26 in 10.0 mi NW 16.1 mph 21.9 mph N/A   Clear
10:32 PM 23.0 °F 8.3 °F 17.6 °F 80% 30.26 in 10.0 mi NW 19.6 mph 23.0 mph N/A   Clear
10:52 PM 21.2 °F 6.4 °F 17.6 °F 86% 30.27 in 10.0 mi NW 18.4 mph - N/A   Clear
11:12 PM 21.2 °F 6.8 °F 17.6 °F 86% 30.27 in 10.0 mi NW 17.3 mph 23.0 mph N/A   Clear
11:32 PM 21.2 °F 8.3 °F 17.6 °F 86% 30.27 in 10.0 mi NW 13.8 mph - N/A   Clear
11:52 PM 21.2 °F 7.3 °F 17.6 °F 86% 30.27 in 10.0 mi NW 16.1 mph - N/A   Clear